Time,TemperatureF,DewpointF,PressureIn,WindDirection,WindDirectionDegrees,WindSpeedMPH,WindSpeedGustMPH,Humidity,HourlyPrecipIn,Conditions,Clouds,dailyrainin,SolarRadiationWatts/m^2,SoftwareType,DateUTC
2013-07-12 00:00:00,62.9,60.2,30.02,South,186,0.0,0.0,91,0.00,,---,0.00,0.00,VWS V14.01,2013-07-12 05:00:00,
2013-07-12 00:01:00,62.9,60.5,30.03,South,186,0.0,0.0,92,0.00,,---,0.00,0.00,VWS V14.01,2013-07-12 05:01:00,
2013-07-12 00:06:00,62.8,60.1,30.02,South,186,0.0,0.0,91,0.00,,---,0.00,0.00,VWS V14.01,2013-07-12 05:06:00,
2013-07-12 00:13:00,62.7,60.3,30.03,South,186,0.0,0.0,92,0.00,,---,0.00,0.00,VWS V14.01,2013-07-12 05:13:00,
2013-07-12 00:18:00,62.6,60.2,30.03,South,186,1.0,1.0,92,0.00,,---,0.00,0.00,VWS V14.01,2013-07-12 05:18:00,
2013-07-12 00:23:00,62.5,59.8,30.03,South,186,0.0,2.0,91,0.00,,---,0.00,0.00,VWS V14.01,2013-07-12 05:23:00,
2013-07-12 00:28:00,62.3,60.0,30.03,South,186,0.0,2.0,92,0.00,,---,0.00,0.00,VWS V14.01,2013-07-12 05:28:00,
2013-07-12 00:33:00,62.2,59.8,30.02,South,186,0.0,2.0,92,0.00,,---,0.00,0.00,VWS V14.01,2013-07-12 05:33:00,
2013-07-12 00:38:00,62.1,59.8,30.03,South,186,0.0,2.0,92,0.00,,---,0.00,0.00,VWS V14.01,2013-07-12 05:38:00,
2013-07-12 00:43:00,61.9,59.5,30.02,South,186,0.0,2.0,92,0.00,,---,0.00,0.00,VWS V14.01,2013-07-12 05:43:00,
2013-07-12 00:48:00,61.8,59.5,30.03,South,186,0.0,2.0,92,0.00,,---,0.00,0.00,VWS V14.01,2013-07-12 05:48:00,
2013-07-12 00:53:00,61.6,59.3,30.03,South,186,0.0,2.0,92,0.00,,---,0.00,0.00,VWS V14.01,2013-07-12 05:53:00,
2013-07-12 00:58:00,61.4,59.1,30.03,South,186,0.0,2.0,92,0.00,,---,0.00,0.00,VWS V14.01,2013-07-12 05:58:00,
2013-07-12 01:00:00,61.4,59.1,30.03,South,186,0.0,2.0,92,0.00,,---,0.00,0.00,VWS V14.01,2013-07-12 06:00:00,
2013-07-12 01:03:00,61.3,59.0,30.04,South,186,0.0,0.0,92,0.00,,---,0.00,0.00,VWS V14.01,2013-07-12 06:03:00,
2013-07-12 01:08:00,61.3,59.3,30.04,South,186,0.0,1.0,93,0.00,,---,0.00,0.00,VWS V14.01,2013-07-12 06:08:00,
2013-07-12 01:13:00,61.2,59.2,30.05,South,186,0.0,1.0,93,0.00,,---,0.00,0.00,VWS V14.01,2013-07-12 06:13:00,
2013-07-12 01:18:00,61.1,59.1,30.04,South,186,0.0,1.0,93,0.00,,---,0.00,0.00,VWS V14.01,2013-07-12 06:18:00,
2013-07-12 01:23:00,60.9,58.6,30.05,South,186,0.0,1.0,92,0.00,,---,0.00,0.00,VWS V14.01,2013-07-12 06:23:00,
2013-07-12 01:28:00,60.6,58.3,30.05,South,186,0.0,1.0,92,0.00,,---,0.00,0.00,VWS V14.01,2013-07-12 06:28:00,
2013-07-12 01:33:00,60.5,58.5,30.05,South,186,0.0,1.0,93,0.00,,---,0.00,0.00,VWS V14.01,2013-07-12 06:33:00,
2013-07-12 01:38:00,60.4,58.4,30.05,South,186,0.0,1.0,93,0.00,,---,0.00,0.00,VWS V14.01,2013-07-12 06:38:00,
2013-07-12 01:43:00,60.2,58.2,30.04,South,186,0.0,1.0,93,0.00,,---,0.00,0.00,VWS V14.01,2013-07-12 06:43:00,
2013-07-12 01:48:00,60.1,58.1,30.04,South,186,0.0,1.0,93,0.00,,---,0.00,0.00,VWS V14.01,2013-07-12 06:48:00,
2013-07-12 01:53:00,60.1,58.1,30.04,South,186,0.0,1.0,93,0.00,,---,0.00,0.00,VWS V14.01,2013-07-12 06:53:00,
2013-07-12 01:58:00,60.1,58.1,30.03,South,186,0.0,1.0,93,0.00,,---,0.00,0.00,VWS V14.01,2013-07-12 06:58:00,
2013-07-12 02:00:00,60.1,58.1,30.03,South,186,0.0,1.0,93,0.00,,---,0.00,0.00,VWS V14.01,2013-07-12 07:00:00,
2013-07-12 02:03:00,60.0,58.0,30.03,South,186,0.0,0.0,93,0.00,,---,0.00,0.00,VWS V14.01,2013-07-12 07:03:00,
2013-07-12 02:08:00,59.9,57.9,30.03,South,186,0.0,0.0,93,0.00,,---,0.00,0.00,VWS V14.01,2013-07-12 07:08:00,
2013-07-12 02:13:00,59.8,57.8,30.04,South,186,0.0,0.0,93,0.00,,---,0.00,0.00,VWS V14.01,2013-07-12 07:13:00,
2013-07-12 02:18:00,59.7,58.0,30.04,South,186,0.0,0.0,94,0.00,,---,0.00,0.00,VWS V14.01,2013-07-12 07:18:00,
2013-07-12 02:23:00,59.7,58.0,30.04,South,186,0.0,0.0,94,0.00,,---,0.00,0.00,VWS V14.01,2013-07-12 07:23:00,
2013-07-12 02:28:00,59.7,58.0,30.03,South,186,0.0,0.0,94,0.00,,---,0.00,0.00,VWS V14.01,2013-07-12 07:28:00,
2013-07-12 02:33:00,59.6,57.9,30.03,South,186,0.0,0.0,94,0.00,,---,0.00,0.00,VWS V14.01,2013-07-12 07:33:00,
2013-07-12 02:38:00,59.6,57.9,30.03,South,186,0.0,0.0,94,0.00,,---,0.00,0.00,VWS V14.01,2013-07-12 07:38:00,
2013-07-12 02:43:00,59.6,57.9,30.03,South,186,0.0,0.0,94,0.00,,---,0.00,0.00,VWS V14.01,2013-07-12 07:43:00,
2013-07-12 02:48:00,59.5,57.8,30.03,South,186,0.0,0.0,94,0.00,,---,0.00,0.00,VWS V14.01,2013-07-12 07:48:00,
2013-07-12 02:53:00,59.4,57.7,30.03,South,186,0.0,0.0,94,0.00,,---,0.00,0.00,VWS V14.01,2013-07-12 07:53:00,
2013-07-12 02:58:00,59.5,57.8,30.03,South,186,0.0,1.0,94,0.00,,---,0.00,0.00,VWS V14.01,2013-07-12 07:58:00,
2013-07-12 03:00:00,59.4,57.7,30.03,South,186,1.0,1.0,94,0.00,,---,0.00,0.00,VWS V14.01,2013-07-12 08:00:00,
2013-07-12 03:03:00,59.3,57.6,30.03,South,186,0.0,1.0,94,0.00,,---,0.00,0.00,VWS V14.01,2013-07-12 08:03:00,
2013-07-12 03:08:00,59.3,57.6,30.04,South,186,0.0,1.0,94,0.00,,---,0.00,0.00,VWS V14.01,2013-07-12 08:08:00,
2013-07-12 03:13:00,59.1,57.4,30.04,South,186,0.0,1.0,94,0.00,,---,0.00,0.00,VWS V14.01,2013-07-12 08:13:00,
2013-07-12 03:18:00,59.1,57.4,30.04,South,186,0.0,1.0,94,0.00,,---,0.00,0.00,VWS V14.01,2013-07-12 08:18:00,
2013-07-12 03:23:00,59.0,57.3,30.03,South,186,0.0,1.0,94,0.00,,---,0.00,0.00,VWS V14.01,2013-07-12 08:23:00,
2013-07-12 03:28:00,58.8,57.1,30.03,South,186,0.0,1.0,94,0.00,,---,0.00,0.00,VWS V14.01,2013-07-12 08:28:00,
2013-07-12 03:33:00,58.6,56.9,30.04,South,186,0.0,1.0,94,0.00,,---,0.00,0.00,VWS V14.01,2013-07-12 08:33:00,
2013-07-12 03:38:00,58.4,56.7,30.04,South,186,0.0,1.0,94,0.00,,---,0.00,0.00,VWS V14.01,2013-07-12 08:38:00,
2013-07-12 03:43:00,58.3,56.6,30.04,South,186,0.0,1.0,94,0.00,,---,0.00,0.00,VWS V14.01,2013-07-12 08:43:00,
2013-07-12 03:48:00,58.0,56.3,30.05,South,186,0.0,1.0,94,0.00,,---,0.00,0.00,VWS V14.01,2013-07-12 08:48:00,
2013-07-12 03:53:00,57.8,56.1,30.05,South,186,1.0,1.0,94,0.00,,---,0.00,0.00,VWS V14.01,2013-07-12 08:53:00,
2013-07-12 03:58:00,57.9,56.2,30.04,South,186,1.0,2.0,94,0.00,,---,0.00,0.00,VWS V14.01,2013-07-12 08:58:00,
2013-07-12 04:00:00,57.9,56.2,30.04,South,186,0.0,2.0,94,0.00,,---,0.00,0.00,VWS V14.01,2013-07-12 09:00:00,
2013-07-12 04:03:00,57.9,56.2,30.03,South,186,0.0,0.0,94,0.00,,---,0.00,0.00,VWS V14.01,2013-07-12 09:03:00,
2013-07-12 04:08:00,57.7,56.3,30.03,South,186,0.0,0.0,95,0.00,,---,0.00,0.00,VWS V14.01,2013-07-12 09:08:00,
2013-07-12 04:13:00,57.6,56.2,30.03,South,186,0.0,0.0,95,0.00,,---,0.00,0.00,VWS V14.01,2013-07-12 09:13:00,
2013-07-12 04:18:00,57.5,56.1,30.03,South,186,0.0,0.0,95,0.00,,---,0.00,0.00,VWS V14.01,2013-07-12 09:18:00,
2013-07-12 04:23:00,57.5,56.1,30.03,South,186,0.0,0.0,95,0.00,,---,0.00,0.00,VWS V14.01,2013-07-12 09:23:00,
2013-07-12 04:28:00,57.5,56.1,30.04,South,186,0.0,0.0,95,0.00,,---,0.00,0.00,VWS V14.01,2013-07-12 09:28:00,
2013-07-12 04:33:00,57.4,56.0,30.04,South,186,0.0,0.0,95,0.00,,---,0.00,0.00,VWS V14.01,2013-07-12 09:33:00,
2013-07-12 04:38:00,57.1,55.7,30.05,South,186,0.0,0.0,95,0.00,,---,0.00,0.00,VWS V14.01,2013-07-12 09:38:00,
2013-07-12 04:43:00,56.9,55.5,30.05,South,186,0.0,0.0,95,0.00,,---,0.00,0.00,VWS V14.01,2013-07-12 09:43:00,
2013-07-12 04:48:00,56.8,55.4,30.05,South,186,1.0,1.0,95,0.00,,---,0.00,0.00,VWS V14.01,2013-07-12 09:48:00,
2013-07-12 04:53:00,56.7,55.3,30.05,South,186,0.0,1.0,95,0.00,,---,0.00,0.00,VWS V14.01,2013-07-12 09:53:00,
2013-07-12 04:58:00,56.6,55.2,30.06,South,186,0.0,1.0,95,0.00,,---,0.00,0.00,VWS V14.01,2013-07-12 09:58:00,
2013-07-12 05:00:00,56.6,55.2,30.06,South,186,0.0,1.0,95,0.00,,---,0.00,0.00,VWS V14.01,2013-07-12 10:00:00,
2013-07-12 05:03:00,56.4,55.0,30.06,South,186,0.0,0.0,95,0.00,,---,0.00,0.00,VWS V14.01,2013-07-12 10:03:00,
2013-07-12 05:08:00,56.2,54.8,30.06,South,186,0.0,0.0,95,0.00,,---,0.00,0.00,VWS V14.01,2013-07-12 10:08:00,
2013-07-12 05:13:00,56.1,54.7,30.06,South,186,0.0,0.0,95,0.00,,---,0.00,0.00,VWS V14.01,2013-07-12 10:13:00,
2013-07-12 05:18:00,55.9,54.5,30.07,South,186,0.0,1.0,95,0.00,,---,0.00,0.00,VWS V14.01,2013-07-12 10:18:00,
2013-07-12 05:23:00,55.8,54.4,30.07,South,186,0.0,1.0,95,0.00,,---,0.00,0.00,VWS V14.01,2013-07-12 10:23:00,
2013-07-12 05:28:00,55.8,54.4,30.07,South,186,0.0,1.0,95,0.00,,---,0.00,0.00,VWS V14.01,2013-07-12 10:28:00,
2013-07-12 05:33:00,55.8,54.4,30.07,South,186,0.0,1.0,95,0.00,,---,0.00,0.00,VWS V14.01,2013-07-12 10:33:00,
2013-07-12 05:38:00,55.6,54.2,30.07,South,186,0.0,1.0,95,0.00,,---,0.00,7.00,VWS V14.01,2013-07-12 10:38:00,
2013-07-12 05:43:00,55.5,54.1,30.07,South,186,0.0,1.0,95,0.00,,---,0.00,9.00,VWS V14.01,2013-07-12 10:43:00,
2013-07-12 05:48:00,55.4,54.0,30.07,South,186,0.0,1.0,95,0.00,,---,0.00,11.00,VWS V14.01,2013-07-12 10:48:00,
2013-07-12 05:53:00,55.4,54.3,30.07,South,186,0.0,1.0,96,0.00,,---,0.00,12.00,VWS V14.01,2013-07-12 10:53:00,
2013-07-12 05:58:00,55.4,54.3,30.07,South,186,0.0,1.0,96,0.00,,---,0.00,16.00,VWS V14.01,2013-07-12 10:58:00,
2013-07-12 06:00:00,55.4,54.3,30.07,South,186,0.0,1.0,96,0.00,,---,0.00,16.00,VWS V14.01,2013-07-12 11:00:00,
2013-07-12 06:03:00,55.4,54.3,30.07,South,186,0.0,0.0,96,0.00,,---,0.00,18.00,VWS V14.01,2013-07-12 11:03:00,
2013-07-12 06:08:00,55.4,54.3,30.08,South,186,0.0,0.0,96,0.00,,---,0.00,19.00,VWS V14.01,2013-07-12 11:08:00,
2013-07-12 06:13:00,55.5,54.4,30.08,South,186,0.0,0.0,96,0.00,,---,0.00,23.00,VWS V14.01,2013-07-12 11:13:00,
2013-07-12 06:18:00,55.5,54.4,30.08,South,186,0.0,1.0,96,0.00,,---,0.00,25.00,VWS V14.01,2013-07-12 11:18:00,
2013-07-12 06:23:00,55.6,54.5,30.08,South,186,0.0,1.0,96,0.00,,---,0.00,26.00,VWS V14.01,2013-07-12 11:23:00,
2013-07-12 06:28:00,55.7,54.6,30.08,South,186,0.0,1.0,96,0.00,,---,0.00,30.00,VWS V14.01,2013-07-12 11:28:00,
2013-07-12 06:33:00,56.0,54.9,30.08,South,186,0.0,1.0,96,0.00,,---,0.00,32.00,VWS V14.01,2013-07-12 11:33:00,
2013-07-12 06:38:00,56.4,55.6,30.08,South,186,0.0,1.0,97,0.00,,---,0.00,33.00,VWS V14.01,2013-07-12 11:38:00,
2013-07-12 06:43:00,56.8,56.0,30.08,South,186,0.0,1.0,97,0.00,,---,0.00,40.00,VWS V14.01,2013-07-12 11:43:00,
2013-07-12 06:48:00,57.0,56.2,30.08,South,186,0.0,1.0,97,0.00,,---,0.00,58.00,VWS V14.01,2013-07-12 11:48:00,
2013-07-12 06:53:00,57.3,56.5,30.08,South,186,0.0,1.0,97,0.00,,---,0.00,84.00,VWS V14.01,2013-07-12 11:53:00,
2013-07-12 06:58:00,57.6,56.8,30.08,South,186,0.0,1.0,97,0.00,,---,0.00,102.00,VWS V14.01,2013-07-12 11:58:00,
2013-07-12 07:00:00,57.7,56.9,30.08,South,186,0.0,1.0,97,0.00,,---,0.00,88.00,VWS V14.01,2013-07-12 12:00:00,
2013-07-12 07:03:00,58.0,57.2,30.08,South,186,0.0,0.0,97,0.00,,---,0.00,148.00,VWS V14.01,2013-07-12 12:03:00,
2013-07-12 07:08:00,58.4,57.6,30.08,South,186,0.0,0.0,97,0.00,,---,0.00,84.00,VWS V14.01,2013-07-12 12:08:00,
2013-07-12 07:13:00,59.0,58.2,30.08,South,186,0.0,0.0,97,0.00,,---,0.00,206.00,VWS V14.01,2013-07-12 12:13:00,
2013-07-12 07:18:00,59.6,58.8,30.08,South,186,0.0,0.0,97,0.00,,---,0.00,197.00,VWS V14.01,2013-07-12 12:18:00,
2013-07-12 07:23:00,60.2,59.3,30.08,South,186,0.0,0.0,97,0.00,,---,0.00,144.00,VWS V14.01,2013-07-12 12:23:00,
2013-07-12 07:28:00,60.7,59.8,30.09,South,186,0.0,0.0,97,0.00,,---,0.00,251.00,VWS V14.01,2013-07-12 12:28:00,
2013-07-12 07:33:00,61.2,60.3,30.09,West,274,0.0,0.0,97,0.00,,---,0.00,128.00,VWS V14.01,2013-07-12 12:33:00,
2013-07-12 07:38:00,61.4,60.5,30.09,West,274,0.0,0.0,97,0.00,,---,0.00,127.00,VWS V14.01,2013-07-12 12:38:00,
2013-07-12 07:43:00,62.0,61.1,30.09,West,274,0.0,0.0,97,0.00,,---,0.00,178.00,VWS V14.01,2013-07-12 12:43:00,
2013-07-12 07:48:00,62.3,61.2,30.09,West,274,0.0,0.0,96,0.00,,---,0.00,146.00,VWS V14.01,2013-07-12 12:48:00,
2013-07-12 07:53:00,62.8,61.7,30.09,West,274,0.0,0.0,96,0.00,,---,0.00,130.00,VWS V14.01,2013-07-12 12:53:00,
2013-07-12 07:58:00,63.3,61.8,30.08,West,274,0.0,0.0,95,0.00,,---,0.00,169.00,VWS V14.01,2013-07-12 12:58:00,
2013-07-12 08:00:00,63.4,62.0,30.08,West,274,0.0,0.0,95,0.00,,---,0.00,221.00,VWS V14.01,2013-07-12 13:00:00,
2013-07-12 08:03:00,64.0,62.2,30.09,West,274,0.0,0.0,94,0.00,,---,0.00,355.00,VWS V14.01,2013-07-12 13:03:00,
2013-07-12 08:08:00,64.5,62.4,30.09,West,274,0.0,0.0,93,0.00,,---,0.00,253.00,VWS V14.01,2013-07-12 13:08:00,
2013-07-12 08:13:00,64.9,62.2,30.09,West,274,0.0,0.0,91,0.00,,---,0.00,95.00,VWS V14.01,2013-07-12 13:13:00,
2013-07-12 08:18:00,65.0,62.3,30.09,West,274,0.0,0.0,91,0.00,,---,0.00,118.00,VWS V14.01,2013-07-12 13:18:00,
2013-07-12 08:23:00,65.4,62.1,30.09,West,274,0.0,1.0,89,0.00,,---,0.00,420.00,VWS V14.01,2013-07-12 13:23:00,
2013-07-12 08:28:00,66.2,61.9,30.09,West,274,0.0,1.0,86,0.00,,---,0.00,441.00,VWS V14.01,2013-07-12 13:28:00,
2013-07-12 08:33:00,66.8,61.5,30.09,West,274,1.0,2.0,83,0.00,,---,0.00,267.00,VWS V14.01,2013-07-12 13:33:00,
2013-07-12 08:38:00,67.1,61.1,30.09,SW,232,0.0,3.0,81,0.00,,---,0.00,489.00,VWS V14.01,2013-07-12 13:38:00,
2013-07-12 08:43:00,67.5,61.5,30.09,SW,232,0.0,3.0,81,0.00,,---,0.00,494.00,VWS V14.01,2013-07-12 13:43:00,
2013-07-12 08:48:00,68.1,61.3,30.09,SW,232,0.0,3.0,79,0.00,,---,0.00,483.00,VWS V14.01,2013-07-12 13:48:00,
2013-07-12 08:53:00,68.9,61.8,30.09,SW,220,0.0,3.0,78,0.00,,---,0.00,410.00,VWS V14.01,2013-07-12 13:53:00,
2013-07-12 08:58:00,69.5,62.0,30.09,SW,220,1.0,3.0,77,0.00,,---,0.00,531.00,VWS V14.01,2013-07-12 13:58:00,
2013-07-12 09:00:00,69.5,62.0,30.09,SW,220,0.0,3.0,77,0.00,,---,0.00,531.00,VWS V14.01,2013-07-12 14:00:00,
2013-07-12 09:03:00,69.8,61.9,30.09,SW,220,1.0,2.0,76,0.00,,---,0.00,199.00,VWS V14.01,2013-07-12 14:03:00,
2013-07-12 09:08:00,69.8,61.9,30.09,SW,220,0.0,2.0,76,0.00,,---,0.00,257.00,VWS V14.01,2013-07-12 14:08:00,
2013-07-12 09:13:00,70.0,61.7,30.09,SW,220,0.0,2.0,75,0.00,,---,0.00,573.00,VWS V14.01,2013-07-12 14:13:00,
2013-07-12 09:18:00,70.3,61.6,30.09,SW,220,1.0,2.0,74,0.00,,---,0.00,585.00,VWS V14.01,2013-07-12 14:18:00,
2013-07-12 09:23:00,71.0,61.9,30.09,SW,223,2.0,3.0,73,0.00,,---,0.00,487.00,VWS V14.01,2013-07-12 14:23:00,
2013-07-12 09:28:00,71.2,61.7,30.09,ESE,115,1.0,3.0,72,0.00,,---,0.00,610.00,VWS V14.01,2013-07-12 14:28:00,
2013-07-12 09:33:00,71.2,61.7,30.09,SSW,212,0.0,3.0,72,0.00,,---,0.00,624.00,VWS V14.01,2013-07-12 14:33:00,
2013-07-12 09:38:00,71.8,61.9,30.09,SSW,212,0.0,3.0,71,0.00,,---,0.00,636.00,VWS V14.01,2013-07-12 14:38:00,
2013-07-12 09:43:00,73.0,62.7,30.09,SSW,212,0.0,3.0,70,0.00,,---,0.00,650.00,VWS V14.01,2013-07-12 14:43:00,
2013-07-12 09:48:00,73.1,62.7,30.09,SSW,212,1.0,3.0,70,0.00,,---,0.00,666.00,VWS V14.01,2013-07-12 14:48:00,
2013-07-12 09:53:00,73.5,62.7,30.09,SSW,212,2.0,3.0,69,0.00,,---,0.00,677.00,VWS V14.01,2013-07-12 14:53:00,
2013-07-12 09:58:00,73.9,63.5,30.09,SSW,211,1.0,3.0,70,0.00,,---,0.00,691.00,VWS V14.01,2013-07-12 14:58:00,
2013-07-12 10:00:00,74.0,63.6,30.09,SSW,211,0.0,3.0,70,0.00,,---,0.00,693.00,VWS V14.01,2013-07-12 15:00:00,
2013-07-12 10:03:00,74.0,62.8,30.09,SSW,211,0.0,3.0,68,0.00,,---,0.00,705.00,VWS V14.01,2013-07-12 15:03:00,
2013-07-12 10:08:00,74.5,63.3,30.09,SSW,202,1.0,3.0,68,0.00,,---,0.00,715.00,VWS V14.01,2013-07-12 15:08:00,
2013-07-12 10:13:00,74.6,63.8,30.09,SSW,202,1.0,3.0,69,0.00,,---,0.00,728.00,VWS V14.01,2013-07-12 15:13:00,
2013-07-12 10:18:00,74.9,64.1,30.08,SW,217,3.0,3.0,69,0.00,,---,0.00,744.00,VWS V14.01,2013-07-12 15:18:00,
2013-07-12 10:23:00,75.6,63.5,30.09,South,187,0.0,3.0,66,0.00,,---,0.00,754.00,VWS V14.01,2013-07-12 15:23:00,
2013-07-12 10:28:00,75.7,62.2,30.08,South,178,0.0,3.0,63,0.00,,---,0.00,765.00,VWS V14.01,2013-07-12 15:28:00,
2013-07-12 10:33:00,76.2,62.7,30.08,SSW,213,3.0,4.0,63,0.00,,---,0.00,775.00,VWS V14.01,2013-07-12 15:33:00,
2013-07-12 10:38:00,77.1,61.7,30.08,South,190,0.0,4.0,59,0.00,,---,0.00,788.00,VWS V14.01,2013-07-12 15:38:00,
2013-07-12 10:43:00,77.3,62.8,30.08,SSW,196,3.0,4.0,61,0.00,,---,0.00,795.00,VWS V14.01,2013-07-12 15:43:00,
2013-07-12 10:48:00,76.5,62.5,30.07,SSW,206,0.0,5.0,62,0.00,,---,0.00,803.00,VWS V14.01,2013-07-12 15:48:00,
2013-07-12 10:53:00,77.3,61.9,30.07,SSW,194,2.0,6.0,59,0.00,,---,0.00,812.00,VWS V14.01,2013-07-12 15:53:00,
2013-07-12 10:58:00,76.7,60.8,30.07,SW,217,1.0,6.0,58,0.00,,---,0.00,823.00,VWS V14.01,2013-07-12 15:58:00,
2013-07-12 11:00:00,76.7,61.8,30.07,SSW,211,2.0,6.0,60,0.00,,---,0.00,823.00,VWS V14.01,2013-07-12 16:00:00,
2013-07-12 11:03:00,77.3,61.4,30.07,WSW,248,3.0,4.0,58,0.00,,---,0.00,831.00,VWS V14.01,2013-07-12 16:03:00,
2013-07-12 11:08:00,78.2,62.2,30.07,SW,214,2.0,4.0,58,0.00,,---,0.00,842.00,VWS V14.01,2013-07-12 16:08:00,
2013-07-12 11:13:00,78.3,61.3,30.07,SSW,205,3.0,5.0,56,0.00,,---,0.00,846.00,VWS V14.01,2013-07-12 16:13:00,
2013-07-12 11:18:00,77.8,60.4,30.07,SW,223,2.0,5.0,55,0.00,,---,0.00,858.00,VWS V14.01,2013-07-12 16:18:00,
2013-07-12 11:23:00,77.7,61.8,30.07,SW,233,2.0,5.0,58,0.00,,---,0.00,868.00,VWS V14.01,2013-07-12 16:23:00,
2013-07-12 11:28:00,77.7,60.8,30.07,SSW,202,3.0,7.0,56,0.00,,---,0.00,882.00,VWS V14.01,2013-07-12 16:28:00,
2013-07-12 11:33:00,77.8,59.8,30.07,SW,215,4.0,7.0,54,0.00,,---,0.00,893.00,VWS V14.01,2013-07-12 16:33:00,
2013-07-12 11:38:00,77.6,61.2,30.07,SSW,203,2.0,7.0,57,0.00,,---,0.00,900.00,VWS V14.01,2013-07-12 16:38:00,
2013-07-12 11:43:00,78.4,59.9,30.07,SW,234,2.0,7.0,53,0.00,,---,0.00,902.00,VWS V14.01,2013-07-12 16:43:00,
2013-07-12 11:48:00,79.3,62.3,30.07,SW,216,4.0,7.0,56,0.00,,---,0.00,902.00,VWS V14.01,2013-07-12 16:48:00,
2013-07-12 11:53:00,79.2,59.0,30.07,East,99,1.0,7.0,50,0.00,,---,0.00,907.00,VWS V14.01,2013-07-12 16:53:00,
2013-07-12 11:58:00,79.3,59.6,30.07,South,169,3.0,7.0,51,0.00,,---,0.00,904.00,VWS V14.01,2013-07-12 16:58:00,
2013-07-12 12:00:00,79.2,59.0,30.07,SSE,167,3.0,7.0,50,0.00,,---,0.00,904.00,VWS V14.01,2013-07-12 17:00:00,
2013-07-12 12:03:00,79.9,59.0,30.07,SSE,149,2.0,4.0,49,0.00,,---,0.00,916.00,VWS V14.01,2013-07-12 17:03:00,
2013-07-12 12:08:00,80.4,58.9,30.07,SE,143,0.0,4.0,48,0.00,,---,0.00,914.00,VWS V14.01,2013-07-12 17:08:00,
2013-07-12 12:14:00,80.0,61.9,30.07,SSW,209,0.0,4.0,54,0.00,,---,0.00,926.00,VWS V14.01,2013-07-12 17:14:00,
2013-07-12 12:19:00,80.3,60.0,30.07,SSE,168,1.0,4.0,50,0.00,,---,0.00,925.00,VWS V14.01,2013-07-12 17:19:00,
2013-07-12 12:24:00,80.3,60.0,30.07,SSE,167,3.0,4.0,50,0.00,,---,0.00,928.00,VWS V14.01,2013-07-12 17:24:00,
2013-07-12 12:29:00,80.3,61.6,30.06,SSW,202,3.0,5.0,53,0.00,,---,0.00,928.00,VWS V14.01,2013-07-12 17:29:00,
2013-07-12 12:34:00,79.6,63.0,30.06,SSW,209,1.0,5.0,57,0.00,,---,0.00,928.00,VWS V14.01,2013-07-12 17:34:00,
2013-07-12 12:39:00,80.6,61.4,30.06,South,174,1.0,5.0,52,0.00,,---,0.00,928.00,VWS V14.01,2013-07-12 17:39:00,
2013-07-12 12:44:00,80.7,61.5,30.06,SSE,165,0.0,5.0,52,0.00,,---,0.00,939.00,VWS V14.01,2013-07-12 17:44:00,
2013-07-12 12:49:00,81.1,61.3,30.06,SSW,213,4.0,5.0,51,0.00,,---,0.00,940.00,VWS V14.01,2013-07-12 17:49:00,
2013-07-12 12:54:00,80.6,60.3,30.06,SSW,208,4.0,6.0,50,0.00,,---,0.00,946.00,VWS V14.01,2013-07-12 17:54:00,
2013-07-12 12:59:00,80.3,60.0,30.06,SW,225,4.0,5.0,50,0.00,,---,0.00,944.00,VWS V14.01,2013-07-12 17:59:00,
2013-07-12 13:00:00,80.3,58.8,30.06,SSW,210,5.0,6.0,48,0.00,,---,0.00,944.00,VWS V14.01,2013-07-12 18:00:00,
2013-07-12 13:04:00,80.2,62.1,30.06,SSW,199,0.0,6.0,54,0.00,,---,0.00,940.00,VWS V14.01,2013-07-12 18:04:00,
2013-07-12 13:09:00,81.0,62.3,30.06,SSW,203,5.0,6.0,53,0.00,,---,0.00,940.00,VWS V14.01,2013-07-12 18:09:00,
2013-07-12 13:14:00,80.5,60.2,30.06,SSW,198,5.0,7.0,50,0.00,,---,0.00,942.00,VWS V14.01,2013-07-12 18:14:00,
2013-07-12 13:19:00,80.3,62.2,30.06,SSE,159,3.0,7.0,54,0.00,,---,0.00,939.00,VWS V14.01,2013-07-12 18:19:00,
2013-07-12 13:25:00,81.7,60.7,30.06,West,265,1.0,7.0,49,0.00,,---,0.00,937.00,VWS V14.01,2013-07-12 18:25:00,
2013-07-12 13:30:00,80.7,62.5,30.06,SSW,209,2.0,7.0,54,0.00,,---,0.00,935.00,VWS V14.01,2013-07-12 18:30:00,
2013-07-12 13:35:00,80.6,61.4,30.06,SSW,200,1.0,7.0,52,0.00,,---,0.00,930.00,VWS V14.01,2013-07-12 18:35:00,
2013-07-12 13:40:00,81.5,61.1,30.06,SSW,206,2.0,7.0,50,0.00,,---,0.00,933.00,VWS V14.01,2013-07-12 18:40:00,
2013-07-12 13:45:00,81.8,61.9,30.05,SW,217,2.0,7.0,51,0.00,,---,0.00,932.00,VWS V14.01,2013-07-12 18:45:00,
2013-07-12 13:50:00,82.4,61.9,30.05,SSW,207,2.0,7.0,50,0.00,,---,0.00,933.00,VWS V14.01,2013-07-12 18:50:00,
2013-07-12 13:55:00,81.3,60.3,30.05,SSW,205,4.0,7.0,49,0.00,,---,0.00,933.00,VWS V14.01,2013-07-12 18:55:00,
2013-07-12 14:00:00,81.4,60.4,30.05,SSW,203,1.0,7.0,49,0.00,,---,0.00,930.00,VWS V14.01,2013-07-12 19:00:00,
2013-07-12 14:01:00,81.4,59.8,30.05,South,191,3.0,5.0,48,0.00,,---,0.00,926.00,VWS V14.01,2013-07-12 19:01:00,
2013-07-12 14:06:00,81.4,59.8,30.05,SSW,203,7.0,7.0,48,0.00,,---,0.00,926.00,VWS V14.01,2013-07-12 19:06:00,
2013-07-12 14:11:00,81.6,60.6,30.05,SW,224,1.0,7.0,49,0.00,,---,0.00,923.00,VWS V14.01,2013-07-12 19:11:00,
2013-07-12 14:16:00,81.5,59.3,30.05,SW,218,3.0,7.0,47,0.00,,---,0.00,919.00,VWS V14.01,2013-07-12 19:16:00,
2013-07-12 14:21:00,81.7,61.3,30.05,SSW,203,3.0,7.0,50,0.00,,---,0.00,916.00,VWS V14.01,2013-07-12 19:21:00,
2013-07-12 14:26:00,81.8,60.2,30.05,SW,215,3.0,7.0,48,0.00,,---,0.00,904.00,VWS V14.01,2013-07-12 19:26:00,
2013-07-12 14:31:00,82.1,60.5,30.05,SSE,158,2.0,7.0,48,0.00,,---,0.00,898.00,VWS V14.01,2013-07-12 19:31:00,
2013-07-12 14:36:00,83.4,59.8,30.05,WSW,242,2.0,7.0,45,0.00,,---,0.00,888.00,VWS V14.01,2013-07-12 19:36:00,
2013-07-12 14:41:00,83.6,59.4,30.05,South,175,2.0,7.0,44,0.00,,---,0.00,884.00,VWS V14.01,2013-07-12 19:41:00,
2013-07-12 14:46:00,83.2,60.3,30.05,South,187,0.0,7.0,46,0.00,,---,0.00,879.00,VWS V14.01,2013-07-12 19:46:00,
2013-07-12 14:51:00,83.2,60.3,30.04,SSW,200,1.0,7.0,46,0.00,,---,0.00,868.00,VWS V14.01,2013-07-12 19:51:00,
2013-07-12 14:56:00,82.5,60.3,30.04,SSW,198,2.0,7.0,47,0.00,,---,0.00,861.00,VWS V14.01,2013-07-12 19:56:00,
2013-07-12 15:00:00,82.5,60.3,30.04,SSW,198,3.0,7.0,47,0.00,,---,0.00,860.00,VWS V14.01,2013-07-12 20:00:00,
2013-07-12 15:01:00,82.5,59.7,30.04,South,181,2.0,4.0,46,0.00,,---,0.00,853.00,VWS V14.01,2013-07-12 20:01:00,
2013-07-12 15:06:00,82.7,59.2,30.04,SSW,206,4.0,5.0,45,0.00,,---,0.00,847.00,VWS V14.01,2013-07-12 20:06:00,
2013-07-12 15:11:00,82.4,61.3,30.04,SSW,202,4.0,5.0,49,0.00,,---,0.00,840.00,VWS V14.01,2013-07-12 20:11:00,
2013-07-12 15:16:00,82.5,62.0,30.04,SSW,202,4.0,5.0,50,0.00,,---,0.00,830.00,VWS V14.01,2013-07-12 20:16:00,
2013-07-12 15:21:00,82.6,60.9,30.04,SSW,211,2.0,5.0,48,0.00,,---,0.00,823.00,VWS V14.01,2013-07-12 20:21:00,
2013-07-12 15:26:00,82.5,60.3,30.04,SSW,209,3.0,5.0,47,0.00,,---,0.00,814.00,VWS V14.01,2013-07-12 20:26:00,
2013-07-12 15:31:00,83.1,60.2,30.03,SW,214,2.0,5.0,46,0.00,,---,0.00,810.00,VWS V14.01,2013-07-12 20:31:00,
2013-07-12 15:36:00,83.5,58.7,30.03,SE,134,0.0,5.0,43,0.00,,---,0.00,817.00,VWS V14.01,2013-07-12 20:36:00,
2013-07-12 15:41:00,83.4,60.5,30.03,SSW,194,0.0,5.0,46,0.00,,---,0.00,587.00,VWS V14.01,2013-07-12 20:41:00,
2013-07-12 15:46:00,83.3,58.5,30.03,South,173,2.0,5.0,43,0.00,,---,0.00,740.00,VWS V14.01,2013-07-12 20:46:00,
2013-07-12 15:51:00,83.5,58.7,30.03,South,184,0.0,5.0,43,0.00,,---,0.00,705.00,VWS V14.01,2013-07-12 20:51:00,
2013-07-12 15:56:00,83.4,57.3,30.03,SSE,167,1.0,5.0,41,0.00,,---,0.00,744.00,VWS V14.01,2013-07-12 20:56:00,
2013-07-12 16:00:00,83.6,58.8,30.03,SSE,168,0.0,5.0,43,0.00,,---,0.00,742.00,VWS V14.01,2013-07-12 21:00:00,
2013-07-12 16:02:00,84.3,58.7,30.03,ESE,117,1.0,3.0,42,0.00,,---,0.00,744.00,VWS V14.01,2013-07-12 21:02:00,
2013-07-12 16:07:00,84.0,58.5,30.03,SSW,209,2.0,5.0,42,0.00,,---,0.00,729.00,VWS V14.01,2013-07-12 21:07:00,
2013-07-12 16:12:00,82.9,59.4,30.03,SSW,198,2.0,5.0,45,0.00,,---,0.00,708.00,VWS V14.01,2013-07-12 21:12:00,
2013-07-12 16:17:00,82.3,58.9,30.02,SSW,205,1.0,5.0,45,0.00,,---,0.00,705.00,VWS V14.01,2013-07-12 21:17:00,
2013-07-12 16:22:00,82.6,59.1,30.02,SW,217,2.0,5.0,45,0.00,,---,0.00,691.00,VWS V14.01,2013-07-12 21:22:00,
2013-07-12 16:27:00,82.8,58.7,30.02,South,188,2.0,5.0,44,0.00,,---,0.00,675.00,VWS V14.01,2013-07-12 21:27:00,
2013-07-12 16:32:00,83.4,57.3,30.02,SE,128,0.0,5.0,41,0.00,,---,0.00,661.00,VWS V14.01,2013-07-12 21:32:00,
2013-07-12 16:37:00,83.2,60.3,30.02,South,176,1.0,5.0,46,0.00,,---,0.00,647.00,VWS V14.01,2013-07-12 21:37:00,
2013-07-12 16:42:00,83.9,57.7,30.02,SE,146,1.0,5.0,41,0.00,,---,0.00,633.00,VWS V14.01,2013-07-12 21:42:00,
2013-07-12 16:47:00,84.4,60.1,30.01,ESE,107,0.0,5.0,44,0.00,,---,0.00,619.00,VWS V14.01,2013-07-12 21:47:00,
2013-07-12 16:52:00,83.1,60.8,30.01,SSW,211,3.0,5.0,47,0.00,,---,0.00,603.00,VWS V14.01,2013-07-12 21:52:00,
2013-07-12 16:57:00,82.6,60.3,30.01,SSE,157,3.0,5.0,47,0.00,,---,0.00,584.00,VWS V14.01,2013-07-12 21:57:00,
2013-07-12 17:00:00,82.8,59.9,30.01,SSW,198,3.0,5.0,46,0.00,,---,0.00,577.00,VWS V14.01,2013-07-12 22:00:00,
2013-07-12 17:02:00,82.9,60.0,30.01,SW,219,3.0,4.0,46,0.00,,---,0.00,570.00,VWS V14.01,2013-07-12 22:02:00,
2013-07-12 17:07:00,82.0,59.8,30.01,SSW,204,3.0,5.0,47,0.00,,---,0.00,420.00,VWS V14.01,2013-07-12 22:07:00,
2013-07-12 17:12:00,81.9,59.1,30.01,WSW,246,0.0,5.0,46,0.00,,---,0.00,513.00,VWS V14.01,2013-07-12 22:12:00,
2013-07-12 17:18:00,82.4,59.0,30.01,SE,146,3.0,5.0,45,0.00,,---,0.00,529.00,VWS V14.01,2013-07-12 22:18:00,
2013-07-12 17:23:00,82.2,58.8,30.01,SSW,199,1.0,5.0,45,0.00,,---,0.00,517.00,VWS V14.01,2013-07-12 22:23:00,
2013-07-12 17:28:00,82.2,61.2,30.01,South,180,2.0,5.0,49,0.00,,---,0.00,501.00,VWS V14.01,2013-07-12 22:28:00,
2013-07-12 17:33:00,82.6,57.9,30.01,South,179,1.0,5.0,43,0.00,,---,0.00,482.00,VWS V14.01,2013-07-12 22:33:00,
2013-07-12 17:38:00,82.1,59.3,30.01,SSW,200,0.0,6.0,46,0.00,,---,0.00,464.00,VWS V14.01,2013-07-12 22:38:00,
2013-07-12 17:43:00,81.7,60.1,30.01,SSW,200,1.0,6.0,48,0.00,,---,0.00,448.00,VWS V14.01,2013-07-12 22:43:00,
2013-07-12 17:48:00,81.8,61.4,30.01,SSW,192,2.0,6.0,50,0.00,,---,0.00,431.00,VWS V14.01,2013-07-12 22:48:00,
2013-07-12 17:53:00,81.6,60.6,30.01,SSW,209,1.0,6.0,49,0.00,,---,0.00,413.00,VWS V14.01,2013-07-12 22:53:00,
2013-07-12 17:58:00,82.1,61.1,30.01,SSW,209,0.0,6.0,49,0.00,,---,0.00,403.00,VWS V14.01,2013-07-12 22:58:00,
2013-07-12 18:00:00,82.0,61.0,30.01,SSW,209,2.0,6.0,49,0.00,,---,0.00,401.00,VWS V14.01,2013-07-12 23:00:00,
2013-07-12 18:03:00,81.8,59.6,30.01,South,170,1.0,3.0,47,0.00,,---,0.00,388.00,VWS V14.01,2013-07-12 23:03:00,
2013-07-12 18:08:00,80.9,60.5,30.00,SSW,200,1.0,4.0,50,0.00,,---,0.00,378.00,VWS V14.01,2013-07-12 23:08:00,
2013-07-12 18:13:00,81.2,60.2,30.00,SW,224,1.0,5.0,49,0.00,,---,0.00,366.00,VWS V14.01,2013-07-12 23:13:00,
2013-07-12 18:18:00,81.6,58.8,30.01,South,182,1.0,5.0,46,0.00,,---,0.00,346.00,VWS V14.01,2013-07-12 23:18:00,
2013-07-12 18:23:00,80.7,60.3,30.01,SW,214,3.0,5.0,50,0.00,,---,0.00,329.00,VWS V14.01,2013-07-12 23:23:00,
2013-07-12 18:28:00,80.2,60.5,30.01,SSW,212,1.0,5.0,51,0.00,,---,0.00,318.00,VWS V14.01,2013-07-12 23:28:00,
2013-07-12 18:33:00,79.9,60.7,30.01,SSW,212,1.0,5.0,52,0.00,,---,0.00,302.00,VWS V14.01,2013-07-12 23:33:00,
2013-07-12 18:38:00,79.9,60.2,30.01,SSW,203,2.0,5.0,51,0.00,,---,0.00,287.00,VWS V14.01,2013-07-12 23:38:00,
2013-07-12 18:44:00,79.6,60.4,30.00,SSW,203,0.0,5.0,52,0.00,,---,0.00,265.00,VWS V14.01,2013-07-12 23:44:00,
2013-07-12 18:49:00,79.9,60.7,30.00,SSW,202,1.0,5.0,52,0.00,,---,0.00,250.00,VWS V14.01,2013-07-12 23:49:00,
2013-07-12 18:54:00,79.6,61.0,30.00,SSW,202,3.0,5.0,53,0.00,,---,0.00,225.00,VWS V14.01,2013-07-12 23:54:00,
2013-07-12 18:59:00,79.2,61.1,30.00,SSE,155,1.0,1.0,54,0.00,,---,0.00,114.00,VWS V14.01,2013-07-12 23:59:00,
2013-07-12 19:00:00,79.2,61.7,30.00,SSE,155,1.0,5.0,55,0.00,,---,0.00,114.00,VWS V14.01,2013-07-13 00:00:00,
2013-07-12 19:04:00,79.2,60.6,30.00,South,177,2.0,3.0,53,0.00,,---,0.00,70.00,VWS V14.01,2013-07-13 00:04:00,
2013-07-12 19:09:00,78.7,61.2,30.00,South,177,2.0,3.0,55,0.00,,---,0.00,91.00,VWS V14.01,2013-07-13 00:09:00,
2013-07-12 19:14:00,78.4,60.9,30.00,SSW,211,1.0,4.0,55,0.00,,---,0.00,74.00,VWS V14.01,2013-07-13 00:14:00,
2013-07-12 19:19:00,78.3,60.8,30.00,SE,139,1.0,4.0,55,0.00,,---,0.00,81.00,VWS V14.01,2013-07-13 00:19:00,
2013-07-12 19:24:00,78.2,60.2,30.00,South,181,1.0,4.0,54,0.00,,---,0.00,74.00,VWS V14.01,2013-07-13 00:24:00,
2013-07-12 19:29:00,77.9,61.0,30.00,South,181,2.0,4.0,56,0.00,,---,0.00,102.00,VWS V14.01,2013-07-13 00:29:00,
2013-07-12 19:34:00,77.6,60.7,30.00,South,181,0.0,4.0,56,0.00,,---,0.00,91.00,VWS V14.01,2013-07-13 00:34:00,
2013-07-12 19:39:00,77.5,60.6,30.00,South,181,1.0,4.0,56,0.00,,---,0.00,77.00,VWS V14.01,2013-07-13 00:39:00,
2013-07-12 19:44:00,77.5,61.1,30.00,South,181,0.0,4.0,57,0.00,,---,0.00,49.00,VWS V14.01,2013-07-13 00:44:00,
2013-07-12 19:49:00,77.3,60.9,30.00,South,181,0.0,4.0,57,0.00,,---,0.00,35.00,VWS V14.01,2013-07-13 00:49:00,
2013-07-12 19:54:00,77.1,61.2,30.00,South,181,1.0,4.0,58,0.00,,---,0.00,32.00,VWS V14.01,2013-07-13 00:54:00,
2013-07-12 20:00:00,76.9,61.5,30.00,South,181,0.0,0.0,59,0.00,,---,0.00,26.00,VWS V14.01,2013-07-13 01:00:00,
2013-07-12 20:05:00,76.8,60.9,30.00,South,181,0.0,0.0,58,0.00,,---,0.00,25.00,VWS V14.01,2013-07-13 01:05:00,
2013-07-12 20:10:00,76.5,61.1,30.00,South,181,0.0,0.0,59,0.00,,---,0.00,21.00,VWS V14.01,2013-07-13 01:10:00,
2013-07-12 20:15:00,76.4,61.0,30.00,South,181,0.0,0.0,59,0.00,,---,0.00,18.00,VWS V14.01,2013-07-13 01:15:00,
2013-07-12 20:20:00,76.1,61.2,30.00,South,181,0.0,0.0,60,0.00,,---,0.00,14.00,VWS V14.01,2013-07-13 01:20:00,
2013-07-12 20:25:00,75.9,62.9,30.00,South,181,0.0,0.0,64,0.00,,---,0.00,11.00,VWS V14.01,2013-07-13 01:25:00,
2013-07-12 20:30:00,75.5,62.5,30.00,South,181,0.0,0.0,64,0.00,,---,0.00,7.00,VWS V14.01,2013-07-13 01:30:00,
2013-07-12 20:35:00,74.9,62.8,30.00,South,181,0.0,0.0,66,0.00,,---,0.00,5.00,VWS V14.01,2013-07-13 01:35:00,
2013-07-12 20:40:00,74.8,62.7,30.00,South,181,0.0,0.0,66,0.00,,---,0.00,0.00,VWS V14.01,2013-07-13 01:40:00,
2013-07-12 20:45:00,74.4,62.3,30.00,South,181,0.0,0.0,66,0.00,,---,0.00,0.00,VWS V14.01,2013-07-13 01:45:00,
2013-07-12 20:50:00,73.9,62.3,30.00,South,181,0.0,0.0,67,0.00,,---,0.00,0.00,VWS V14.01,2013-07-13 01:50:00,
2013-07-12 20:55:00,73.0,62.7,30.00,South,181,0.0,0.0,70,0.00,,---,0.00,0.00,VWS V14.01,2013-07-13 01:55:00,
2013-07-12 21:00:00,72.3,63.2,30.00,South,181,0.0,0.0,73,0.00,,---,0.00,0.00,VWS V14.01,2013-07-13 02:00:00,
2013-07-12 21:06:00,71.4,63.1,30.00,South,181,0.0,0.0,75,0.00,,---,0.00,0.00,VWS V14.01,2013-07-13 02:06:00,
2013-07-12 21:11:00,70.4,62.8,30.00,South,181,0.0,0.0,77,0.00,,---,0.00,0.00,VWS V14.01,2013-07-13 02:11:00,
2013-07-12 21:16:00,70.1,62.9,30.00,South,181,0.0,0.0,78,0.00,,---,0.00,0.00,VWS V14.01,2013-07-13 02:16:00,
2013-07-12 21:21:00,69.9,63.1,30.00,South,181,0.0,0.0,79,0.00,,---,0.00,0.00,VWS V14.01,2013-07-13 02:21:00,
2013-07-12 21:26:00,69.9,63.1,30.00,South,181,0.0,0.0,79,0.00,,---,0.00,0.00,VWS V14.01,2013-07-13 02:26:00,
2013-07-12 21:31:00,69.5,63.1,30.00,South,181,0.0,0.0,80,0.00,,---,0.00,0.00,VWS V14.01,2013-07-13 02:31:00,
2013-07-12 21:36:00,69.0,62.9,30.00,South,181,0.0,0.0,81,0.00,,---,0.00,0.00,VWS V14.01,2013-07-13 02:36:00,
2013-07-12 21:42:00,68.8,63.1,30.00,South,181,0.0,0.0,82,0.00,,---,0.00,0.00,VWS V14.01,2013-07-13 02:42:00,
2013-07-12 21:47:00,68.8,62.7,30.00,South,181,0.0,0.0,81,0.00,,---,0.00,0.00,VWS V14.01,2013-07-13 02:47:00,
2013-07-12 21:52:00,69.0,62.9,30.00,South,181,0.0,0.0,81,0.00,,---,0.00,0.00,VWS V14.01,2013-07-13 02:52:00,
2013-07-12 21:58:00,69.0,62.9,30.00,South,181,0.0,0.0,81,0.00,,---,0.00,0.00,VWS V14.01,2013-07-13 02:58:00,
2013-07-12 22:00:00,69.0,62.9,30.00,South,181,0.0,0.0,81,0.00,,---,0.00,0.00,VWS V14.01,2013-07-13 03:00:00,
2013-07-12 22:03:00,68.9,62.8,30.00,South,181,0.0,0.0,81,0.00,,---,0.00,0.00,VWS V14.01,2013-07-13 03:03:00,
2013-07-12 22:08:00,68.9,62.8,30.00,South,181,0.0,0.0,81,0.00,,---,0.00,0.00,VWS V14.01,2013-07-13 03:08:00,
2013-07-12 22:13:00,68.8,62.7,30.00,South,181,0.0,0.0,81,0.00,,---,0.00,0.00,VWS V14.01,2013-07-13 03:13:00,
2013-07-12 22:18:00,68.6,62.5,30.00,South,181,0.0,0.0,81,0.00,,---,0.00,0.00,VWS V14.01,2013-07-13 03:18:00,
2013-07-12 22:23:00,68.5,62.5,30.00,South,181,0.0,0.0,81,0.00,,---,0.00,0.00,VWS V14.01,2013-07-13 03:23:00,
2013-07-12 22:28:00,68.3,62.2,30.00,South,181,0.0,0.0,81,0.00,,---,0.00,0.00,VWS V14.01,2013-07-13 03:28:00,
2013-07-12 22:33:00,68.1,62.1,30.00,South,181,0.0,0.0,81,0.00,,---,0.00,0.00,VWS V14.01,2013-07-13 03:33:00,
2013-07-12 22:38:00,67.9,61.5,30.00,South,181,0.0,0.0,80,0.00,,---,0.00,0.00,VWS V14.01,2013-07-13 03:38:00,
2013-07-12 22:43:00,67.8,61.8,30.00,South,181,0.0,0.0,81,0.00,,---,0.00,0.00,VWS V14.01,2013-07-13 03:43:00,
2013-07-12 22:48:00,67.7,62.0,30.00,South,181,0.0,0.0,82,0.00,,---,0.00,0.00,VWS V14.01,2013-07-13 03:48:00,
2013-07-12 22:53:00,67.6,61.6,30.00,South,181,0.0,0.0,81,0.00,,---,0.00,0.00,VWS V14.01,2013-07-13 03:53:00,
2013-07-12 22:58:00,67.5,61.8,30.00,South,181,0.0,0.0,82,0.00,,---,0.00,0.00,VWS V14.01,2013-07-13 03:58:00,
2013-07-12 23:00:00,67.5,61.8,30.00,South,181,0.0,0.0,82,0.00,,---,0.00,0.00,VWS V14.01,2013-07-13 04:00:00,
2013-07-12 23:01:00,67.5,61.8,30.00,South,181,0.0,0.0,82,0.00,,---,0.00,0.00,VWS V14.01,2013-07-13 04:01:00,
2013-07-12 23:02:00,67.4,61.7,30.00,South,181,0.0,0.0,82,0.00,,---,0.00,0.00,VWS V14.01,2013-07-13 04:02:00,
2013-07-12 23:07:00,67.4,62.1,30.00,South,181,0.0,0.0,83,0.00,,---,0.00,0.00,VWS V14.01,2013-07-13 04:07:00,
2013-07-12 23:12:00,67.3,61.6,30.00,South,181,0.0,0.0,82,0.00,,---,0.00,0.00,VWS V14.01,2013-07-13 04:12:00,
2013-07-12 23:17:00,67.1,61.4,30.00,South,181,0.0,0.0,82,0.00,,---,0.00,0.00,VWS V14.01,2013-07-13 04:17:00,
2013-07-12 23:22:00,66.9,61.2,30.00,South,181,0.0,0.0,82,0.00,,---,0.00,0.00,VWS V14.01,2013-07-13 04:22:00,
2013-07-12 23:27:00,66.7,61.0,30.00,South,181,0.0,0.0,82,0.00,,---,0.00,0.00,VWS V14.01,2013-07-13 04:27:00,
2013-07-12 23:32:00,66.5,60.8,30.00,South,181,0.0,0.0,82,0.00,,---,0.00,0.00,VWS V14.01,2013-07-13 04:32:00,
2013-07-12 23:37:00,66.4,61.1,30.00,South,181,0.0,0.0,83,0.00,,---,0.00,0.00,VWS V14.01,2013-07-13 04:37:00,
2013-07-12 23:42:00,66.2,60.9,30.00,South,181,0.0,0.0,83,0.00,,---,0.00,0.00,VWS V14.01,2013-07-13 04:42:00,
2013-07-12 23:47:00,66.1,61.1,30.00,South,181,0.0,0.0,84,0.00,,---,0.00,0.00,VWS V14.01,2013-07-13 04:47:00,
2013-07-12 23:52:00,66.0,61.0,30.00,South,181,0.0,0.0,84,0.00,,---,0.00,0.00,VWS V14.01,2013-07-13 04:52:00,
2013-07-12 23:57:00,65.9,60.9,30.00,South,181,0.0,0.0,84,0.00,,---,0.00,0.00,VWS V14.01,2013-07-13 04:57:00,